| time (UTC) | temp F | wind direction | speed knots | gust knots | rain 1hr in | rain 24hr in | rain mn in | humidity % | barometer mb |
| 20260905190041 | 76 | 74 | 4.3 | 12.2 | 0.00 | 0.00 | 0.00 | 82 | 1016.6 |
| 20260905184548 | 77 | 80 | 5.2 | 11.3 | 0.00 | 0.00 | 0.00 | 82 | 1016.7 |
| 20260905183045 | 77 | 65 | 5.2 | 11.3 | 0.00 | 0.00 | 0.00 | 81 | 1016.5 |
| 20260905181544 | 77 | 6 | 3.5 | 8.7 | 0.00 | 0.00 | 0.00 | 82 | 1016.6 |
| 20260905180047 | 77 | 48 | 3.5 | 7.0 | 0.00 | 0.00 | 0.00 | 82 | 1016.5 |
| 20260905174552 | 77 | 58 | 2.6 | 7.0 | 0.00 | 0.00 | 0.00 | 82 | 1016.4 |
| 20260905173057 | 77 | 41 | 3.5 | 7.8 | 0.00 | 0.00 | 0.00 | 81 | 1016.5 |
| 20260905171550 | 76 | 34 | 1.7 | 4.3 | 0.00 | 0.00 | 0.00 | 82 | 1016.6 |
| 20260905170048 | 76 | 60 | 1.7 | 6.1 | 0.00 | 0.00 | 0.00 | 81 | 1016.6 |
| 20260905164542 | 76 | 68 | 2.6 | 5.2 | 0.00 | 0.01 | 0.00 | 81 | 1016.8 |
| 20260905163050 | 76 | 62 | 2.6 | 5.2 | 0.00 | 0.01 | 0.00 | 82 | 1016.6 |
| 20260905161547 | 76 | 63 | 3.5 | 7.8 | 0.00 | 0.01 | 0.00 | 82 | 1016.8 |
| 20260905160045 | 74 | 5 | 2.6 | 7.0 | 0.00 | 0.01 | 0.00 | 85 | 1016.8 |
| 20260905154540 | 74 | 34 | 3.5 | 8.7 | 0.00 | 0.16 | 0.00 | 86 | 1016.7 |
| 20260905153047 | 74 | 37 | 2.6 | 7.8 | 0.00 | 0.16 | 0.00 | 86 | 1016.6 |
| 20260905151549 | 74 | 54 | 3.5 | 8.7 | 0.00 | 0.16 | 0.00 | 85 | 1016.5 |
| 20260905150043 | 74 | 0 | 0.0 | 6.1 | 0.00 | 0.16 | 0.00 | 86 | 1016.4 |
| 20260905144543 | 73 | 60 | 3.5 | 8.7 | 0.00 | 0.26 | 0.00 | 86 | 1016.3 |
| 20260905143048 | 72 | 39 | 2.6 | 7.0 | 0.00 | 0.26 | 0.00 | 86 | 1016.0 |
| 20260905141546 | 71 | 41 | 2.6 | 7.8 | 0.00 | 0.26 | 0.00 | 85 | 1015.9 |
| 20260905140046 | 71 | 354 | 2.6 | 7.0 | 0.00 | 0.26 | 0.00 | 84 | 1015.9 |
| 20260905134558 | 71 | 30 | 3.5 | 8.7 | 0.00 | 0.27 | 0.00 | 84 | 1015.9 |
| 20260905133054 | 71 | 8 | 1.7 | 7.0 | 0.00 | 0.27 | 0.00 | 83 | 1016.0 |
| 20260905131547 | 71 | 44 | 0.9 | 4.3 | 0.00 | 0.27 | 0.00 | 82 | 1016.3 |
| 20260905130044 | 70 | 81 | 0.0 | 6.1 | 0.00 | 0.27 | 0.00 | 82 | 1015.6 |
| 20260905124549 | 70 | 24 | 2.6 | 7.0 | 0.00 | 0.27 | 0.00 | 83 | 1015.6 |
| 20260905123048 | 70 | 70 | 1.7 | 4.3 | 0.00 | 0.27 | 0.00 | 83 | 1015.4 |
| 20260905121542 | 70 | 72 | 0.9 | 4.3 | 0.00 | 0.27 | 0.00 | 83 | 1015.1 |
| 20260905120050 | 69 | 30 | 0.9 | 3.5 | 0.00 | 0.27 | 0.00 | 83 | 1015.1 |
| 20260905114545 | 69 | 45 | 1.7 | 7.0 | 0.00 | 0.27 | 0.00 | 83 | 1014.9 |
| 20260905113042 | 69 | 28 | 1.7 | 7.0 | 0.00 | 0.27 | 0.00 | 83 | 1014.8 |
| 20260905111548 | 69 | 53 | 3.5 | 9.6 | 0.00 | 0.27 | 0.00 | 84 | 1014.7 |
| 20260905110104 | 69 | 58 | 4.3 | 7.8 | 0.00 | 0.27 | 0.00 | 84 | 1014.4 |
| 20260905104556 | 70 | 34 | 2.6 | 7.0 | 0.00 | 0.27 | 0.00 | 84 | 1014.3 |
| 20260905103051 | 70 | 72 | 1.7 | 6.1 | 0.00 | 0.27 | 0.00 | 84 | 1014.5 |
| 20260905101551 | 70 | 64 | 2.6 | 7.0 | 0.00 | 0.27 | 0.00 | 84 | 1014.3 |
| 20260905100045 | 70 | 7 | 2.6 | 7.0 | 0.00 | 0.27 | 0.00 | 84 | 1014.3 |
| 20260905094542 | 70 | 58 | 0.0 | 2.6 | 0.00 | 0.28 | 0.00 | 84 | 1014.0 |
| 20260905093044 | 70 | 0 | 0.0 | 1.7 | 0.00 | 0.28 | 0.00 | 84 | 1014.1 |
| 20260905091601 | 70 | 0 | 0.0 | 2.6 | 0.00 | 0.28 | 0.00 | 84 | 1014.0 |
| 20260905090045 | 70 | 32 | 0.9 | 4.3 | 0.00 | 0.28 | 0.00 | 84 | 1014.1 |
| 20260905084542 | 70 | 30 | 1.7 | 4.3 | 0.00 | 0.29 | 0.00 | 84 | 1014.0 |
| 20260905083049 | 70 | 0 | 0.9 | 2.6 | 0.00 | 0.29 | 0.00 | 84 | 1014.0 |
| 20260905081600 | 70 | 27 | 0.0 | 2.6 | 0.00 | 0.29 | 0.00 | 85 | 1013.9 |
| 20260905080041 | 70 | 0 | 0.0 | 4.3 | 0.00 | 0.29 | 0.00 | 85 | 1013.9 |
| 20260905074542 | 70 | 0 | 0.9 | 1.7 | 0.00 | 0.30 | 0.00 | 85 | 1014.0 |
| 20260905073045 | 70 | 0 | 0.0 | 0.9 | 0.00 | 0.30 | 0.00 | 85 | 1013.9 |
| 20260905071543 | 70 | 0 | 0.0 | 2.6 | 0.00 | 0.30 | 0.00 | 86 | 1013.9 |
| 20260905070050 | 70 | 0 | 0.0 | 0.0 | 0.00 | 0.30 | 0.00 | 86 | 1013.8 |
| 20260905064550 | 70 | 0 | 0.0 | 0.0 | 0.00 | 0.30 | 0.00 | 86 | 1013.9 |
| 20260905063052 | 71 | 0 | 0.0 | 0.0 | 0.00 | 0.30 | 0.00 | 86 | 1013.9 |
| 20260905061545 | 71 | 0 | 0.0 | 0.0 | 0.00 | 0.30 | 0.00 | 86 | 1014.0 |
| 20260905060040 | 71 | 0 | 0.0 | 2.6 | 0.00 | 0.30 | 0.00 | 86 | 1014.2 |
| 20260905054551 | 71 | 0 | 0.9 | 2.6 | 0.00 | 0.30 | 0.00 | 86 | 1014.1 |
| 20260905053044 | 71 | 0 | 0.0 | 0.0 | 0.00 | 0.30 | 0.00 | 86 | 1013.7 |
| 20260905051544 | 71 | 0 | 0.0 | 0.0 | 0.00 | 0.30 | 0.00 | 87 | 1014.0 |
| 20260905050042 | 72 | 0 | 0.0 | 0.0 | 0.00 | 0.30 | 0.00 | 87 | 1014.0 |
| 20260905044540 | 72 | 0 | 0.0 | 0.0 | 0.00 | 0.30 | 0.30 | 87 | 1014.2 |
| 20260905043044 | 72 | 0 | 0.0 | 0.9 | 0.00 | 0.30 | 0.30 | 86 | 1014.6 |
| 20260905041543 | 72 | 0 | 0.0 | 1.7 | 0.00 | 0.30 | 0.30 | 86 | 1014.5 |
| 20260905040055 | 71 | 0 | 0.0 | 1.7 | 0.00 | 0.30 | 0.30 | 86 | 1014.3 |
| 20260905034545 | 71 | 0 | 0.0 | 0.0 | 0.00 | 0.30 | 0.30 | 87 | 1014.0 |
| 20260905033050 | 71 | 0 | 0.0 | 0.0 | 0.00 | 0.30 | 0.30 | 87 | 1014.2 |
| 20260905031551 | 71 | 0 | 0.0 | 0.0 | 0.00 | 0.30 | 0.30 | 87 | 1014.2 |
| 20260905030048 | 72 | 0 | 0.0 | 0.0 | 0.00 | 0.30 | 0.30 | 87 | 1014.6 |
| 20260905024542 | 72 | 0 | 0.0 | 0.0 | 0.00 | 0.30 | 0.30 | 87 | 1014.5 |
| 20260905023043 | 72 | 0 | 0.0 | 0.9 | 0.00 | 0.30 | 0.30 | 87 | 1014.4 |
| 20260905021549 | 72 | 0 | 0.0 | 1.7 | 0.00 | 0.30 | 0.30 | 87 | 1014.4 |
| 20260905020040 | 73 | 0 | 0.0 | 2.6 | 0.00 | 0.30 | 0.30 | 87 | 1014.5 |
| 20260905014543 | 73 | 77 | 0.9 | 3.5 | 0.00 | 0.30 | 0.30 | 87 | 1014.5 |
| 20260905013047 | 73 | 75 | 1.7 | 2.6 | 0.00 | 0.30 | 0.30 | 87 | 1014.5 |
| 20260905011543 | 74 | 0 | 0.0 | 1.7 | 0.00 | 0.30 | 0.30 | 87 | 1014.4 |
| 20260905010045 | 74 | 75 | 0.9 | 1.7 | 0.00 | 0.30 | 0.30 | 87 | 1014.1 |
| 20260905004609 | 75 | 77 | 0.9 | 3.5 | 0.00 | 0.30 | 0.30 | 86 | 1013.7 |
| 20260905003049 | 75 | 74 | 0.9 | 2.6 | 0.00 | 0.30 | 0.30 | 84 | 1013.6 |
| 20260905001544 | 76 | 0 | 0.9 | 2.6 | 0.00 | 0.30 | 0.30 | 84 | 1013.6 |
| 20260905000043 | 76 | 76 | 0.9 | 1.7 | 0.00 | 0.30 | 0.30 | 83 | 1013.6 |
| 20260904234550 | 76 | 0 | 0.0 | 3.5 | 0.00 | 0.30 | 0.30 | 83 | 1013.5 |
| 20260904233045 | 77 | 69 | 1.7 | 5.2 | 0.00 | 0.30 | 0.30 | 82 | 1013.2 |
| 20260904231546 | 77 | 51 | 0.9 | 4.3 | 0.00 | 0.30 | 0.30 | 82 | 1013.1 |
| 20260904224541 | 78 | 51 | 0.9 | 4.3 | 0.00 | 0.30 | 0.30 | 80 | 1013.2 |
| 20260904223050 | 78 | 70 | 1.7 | 6.1 | 0.00 | 0.30 | 0.30 | 80 | 1013.2 |
| 20260904221543 | 78 | 82 | 3.5 | 6.1 | 0.00 | 0.30 | 0.30 | 79 | 1013.2 |
| 20260904220044 | 78 | 86 | 2.6 | 5.2 | 0.00 | 0.30 | 0.30 | 80 | 1013.2 |
| 20260904214548 | 78 | 33 | 3.5 | 6.1 | 0.00 | 0.30 | 0.30 | 79 | 1013.2 |
| 20260904213044 | 80 | 70 | 3.5 | 7.0 | 0.00 | 0.30 | 0.30 | 74 | 1013.0 |
| 20260904211549 | 87 | 80 | 2.6 | 5.2 | 0.00 | 0.30 | 0.30 | 65 | 1012.9 |
| 20260904210048 | 87 | 328 | 0.0 | 3.5 | 0.00 | 0.30 | 0.30 | 70 | 1012.8 |
| 20260904204543 | 85 | 238 | 3.5 | 10.4 | 0.00 | 0.30 | 0.30 | 71 | 1012.4 |
| 20260904203044 | 84 | 245 | 2.6 | 10.4 | 0.00 | 0.30 | 0.30 | 75 | 1012.2 |
| 20260904201547 | 83 | 213 | 3.5 | 11.3 | 0.00 | 0.30 | 0.30 | 75 | 1012.4 |
| 20260904200048 | 83 | 262 | 4.3 | 9.6 | 0.00 | 0.30 | 0.30 | 74 | 1012.5 |
| 20260904194544 | 83 | 252 | 3.5 | 12.2 | 0.00 | 0.30 | 0.30 | 76 | 1012.7 |
| 20260904193043 | 82 | 219 | 5.2 | 15.6 | 0.00 | 0.30 | 0.30 | 75 | 1012.9 |
| 20260904191543 | 80 | 239 | 5.2 | 10.4 | 0.00 | 0.30 | 0.30 | 77 | 1013.0 |